Location: Sevilla
(37.3933°N, 5.9839°W)
Time: 06:05:29
(UTC+02:00)

Transit 2A - Pass Details

Date: 02 July 2024
Orbit: 591 x 960 km, 66.7° (Epoch: 15 July)

Event Time Altitude Azimuth Distance (km) Brightness Sun altitude
Rises 01:54:35 0° 312° (NW) 3,623 10.2 -29.1°
Reaches altitude 10° 01:58:09 10° 293° (WNW) 2,691 9.1 -29.2°
Enters shadow 02:01:46 16° 258° (WSW) 2,274 8.3 -29.3°
Maximum altitude 02:01:48 16° 257° (WSW) 2,274 - -29.3°
Drops below altitude 10° 02:05:26 10° 222° (SW) 2,668 - -29.4°
Sets 02:08:58 0° 202° (SSW) 3,575 - -29.4°
